Temp_Advection
nan nan nan nan nan nan nan nan nan nan nan nan nan nan nan nan nan nan nan nan nan nan nan nan nan nan nan nan nan nan nan nan nan nan nan nan nan nan nan nan nan nan nan
nan 0 1 1 0 0 0 0 0 0 0 0 0 0 0 -0 -0 0 0 0 -0 0 0 -0 -0 0 -0 -0 -0 0 0 0 0 0 0 -0 -0 -0 0 -0 -0 -0 nan
nan 0 1 1 0 0 0 1 1 0 0 0 0 0 -0 -0 0 0 -0 -0 0 0 0 -0 0 0 -0 -0 -0 0 0 0 0 0 0 0 0 -0 0 0 0 -0 nan
nan 0 -0 0 0 0 0 1 1 1 0 0 0 0 0 0 -0 0 0 -0 0 0 -0 -0 0 -0 -0 0 0 -0 0 0 0 0 0 0 0 0 -0 -0 -0 0 nan
nan -0 0 1 0 1 1 1 1 1 1 1 1 0 -1 -0 0 0 0 0 0 0 0 0 0 0 0 0 -0 -0 0 0 0 0 0 -0 0 -0 -0 0 0 0 nan
nan -0 0 0 -0 0 1 1 1 1 1 1 -1 -0 0 -0 0 1 0 0 0 0 -0 0 0 -0 -0 0 0 0 0 0 0 -0 -0 0 0 0 0 0 0 -0 nan
nan -0 -0 -0 -0 0 1 1 1 2 1 1 -1 -0 0 1 1 0 -0 0 0 -0 0 0 0 -0 0 0 0 0 0 0 0 -0 0 0 0 0 1 0 -0 -0 nan
nan -0 -0 -0 -1 -0 0 0 0 1 1 0 0 0 0 0 1 1 0 -0 0 0 0 0 -0 0 0 0 -0 0 0 0 0 0 0 0 0 0 0 0 0 0 nan
nan 0 0 0 -0 -1 -1 0 0 1 3 0 -2 -1 0 1 0 1 0 0 0 0 0 0 0 0 0 0 0 0 0 -0 0 0 -0 0 0 0 0 0 0 -0 nan
nan -0 0 0 0 0 -0 -0 -0 -0 -0 1 1 -1 0 1 0 0 0 0 0 0 0 0 0 0 0 0 -0 0 -0 -0 0 0 -0 0 0 0 0 -0 -0 -0 nan
nan -0 -0 0 0 -0 -0 -0 0 -0 -0 -0 -0 0 0 1 1 0 -0 -0 0 0 0 -0 0 0 0 -0 0 0 0 0 0 0 0 0 0 0 -0 -0 -0 -0 nan
nan -1 -0 -0 -0 0 0 -0 -0 0 -0 0 -0 0 0 0 0 0 -0 0 0 0 0 0 0 0 0 0 0 0 0 -0 0 0 -0 0 0 -0 -0 -0 0 0 nan
nan -1 -1 -0 -0 -0 0 0 0 -0 -0 -0 0 0 0 0 -0 0 0 0 0 0 0 0 0 0 0 0 0 -0 -0 0 0 -0 -0 -0 -0 0 0 0 0 0 nan
nan -1 -2 -1 -0 -0 -1 -0 -0 -0 -0 -0 1 1 -0 0 0 0 0 0 0 0 0 0 0 0 -0 0 -0 -0 -0 0 -0 -0 -0 0 0 0 -0 -0 -0 0 nan
nan -1 -1 -1 -0 0 -0 -1 -1 -1 -2 -2 -0 0 1 1 1 1 -0 -0 0 0 1 0 0 -0 -0 -0 0 -0 -0 -0 -0 0 0 0 -0 -0 -0 0 0 -0 nan
nan -1 -0 -1 -1 -0 1 0 -1 -1 -1 -1 -3 -1 1 0 0 1 1 0 0 1 0 -0 -0 -0 -0 -1 -0 -0 -0 -0 0 0 0 -0 -0 -0 1 0 -0 -1 nan
nan -1 -0 -0 -1 -1 -0 0 -0 0 0 -1 -1 -0 -0 -1 -0 1 0 1 1 0 -0 -1 -0 -0 -1 -0 -0 -0 0 0 -0 0 0 0 -0 0 0 -0 -0 -1 nan
nan -1 -1 -0 -0 -1 -1 0 0 -1 -3 -1 2 1 -0 -1 -1 -1 1 1 -0 -1 -1 -0 -0 -0 0 0 0 -0 0 0 0 -0 -0 0 -0 0 -0 -0 -0 -0 nan
nan -1 -1 -1 -1 -1 -0 -0 -0 -0 -1 0 1 -0 -0 -0 -1 -1 0 1 1 -1 -1 -1 -0 0 -0 0 0 -0 -0 0 0 0 1 0 -0 -0 0 0 -0 -1 nan
nan -1 -1 -1 -1 -1 -1 -1 -0 -0 -0 0 0 -0 -0 -0 -0 -1 -0 0 1 -0 -1 -1 0 -0 -0 1 -0 -1 0 1 0 0 0 0 -0 -1 -1 -0 -0 -1 nan
nan -2 -1 -1 -1 -0 -1 -1 -1 -1 -1 -0 0 0 -0 0 1 -0 -1 0 0 -0 -0 0 1 -1 -1 -1 -0 -0 -1 -0 0 1 1 -0 -1 -1 -0 1 -0 0 nan
nan -1 -1 -1 -1 -0 -0 -0 -1 -1 -1 -1 -1 0 0 -0 0 0 -0 -0 -0 0 -0 0 -0 -1 -1 -1 -0 -1 -1 -1 -0 0 1 1 1 -1 -0 -0 -0 -0 nan
nan -1 -1 -1 -1 -1 -1 -0 -0 -1 -1 -1 -1 -1 -0 0 0 0 0 0 -0 0 0 -1 -0 -0 -1 0 0 -1 -1 -1 -0 0 1 1 1 1 1 0 0 0 nan
nan -1 -1 -1 -1 -0 -1 -1 -0 -1 -1 -1 -1 -1 -0 -0 -0 -0 -0 -0 0 -0 -0 -0 0 0 -0 -1 -0 -0 0 1 -0 -1 0 0 0 1 1 1 -0 -0 nan
nan -1 -1 -1 -1 -1 -1 -1 -1 -1 -1 -1 -1 -1 -1 -1 -0 -0 0 -0 -0 0 0 -0 -0 -0 -0 -0 0 -1 -1 1 1 0 -0 1 1 1 -1 -0 1 0 nan
nan nan nan nan nan nan nan nan nan nan nan nan nan nan nan nan nan nan nan nan nan nan nan nan nan nan nan nan nan nan nan nan nan nan nan nan nan nan nan nan nan nan nan
Wind_Speed
26 23 22 20 24 22 21 20 19 19 19 17 15 15 15 17 18 19 17 17 20 19 18 16 18 16 18 16 14 14 15 15 9 5 10 11 10 9 9 9 8 9 9
28 27 26 25 24 22 25 21 20 22 20 20 18 17 16 16 19 21 20 19 20 20 19 19 19 18 20 18 17 16 16 17 17 8 10 14 12 10 11 10 8 7 6
26 27 29 29 28 26 24 24 21 21 22 22 22 22 19 17 19 21 20 20 21 20 20 20 18 20 20 19 18 16 16 18 20 18 9 13 14 15 14 14 13 11 6
21 23 23 26 29 28 25 26 23 20 22 21 20 20 22 21 20 20 22 22 22 20 19 20 20 20 19 18 19 19 17 21 21 21 17 12 16 18 17 15 14 12 10
22 22 22 23 23 26 27 26 26 23 21 19 12 22 24 21 22 21 19 21 22 21 19 18 20 19 19 17 17 17 18 23 25 22 23 21 18 22 22 17 15 13 12
24 22 24 23 25 25 26 27 27 27 22 19 26 16 24 25 23 20 20 19 21 22 21 19 21 19 21 20 15 15 17 19 24 24 22 23 22 22 22 19 16 19 17
19 20 21 24 24 26 30 31 29 30 20 26 25 22 20 20 22 20 22 21 20 23 22 21 22 19 19 16 15 16 20 20 20 19 19 17 19 20 20 20 20 19 18
13 17 20 21 23 25 28 30 31 33 24 20 21 21 20 22 20 19 24 22 21 22 23 21 22 20 19 17 15 16 19 21 24 24 20 14 11 14 15 15 13 15 17
11 14 16 18 22 23 25 26 27 26 25 27 23 21 21 23 19 15 21 23 21 21 22 21 22 20 19 19 16 16 18 20 21 23 21 17 14 12 14 17 20 19 18
10 11 13 16 18 19 20 23 24 20 19 15 25 20 23 17 14 15 18 21 21 21 21 20 21 21 19 19 18 17 18 17 19 22 22 21 21 20 18 18 17 18 17
14 12 14 16 17 16 15 16 18 18 15 17 19 19 14 16 14 16 17 18 19 20 20 20 19 20 20 22 18 19 17 16 16 18 22 23 24 24 24 22 22 22 21
19 17 16 17 18 15 13 12 11 10 9 7 13 18 16 15 14 14 15 17 17 20 20 17 18 16 19 18 18 17 18 18 20 22 22 24 24 23 21 20 21 23 22
23 22 19 18 19 20 16 16 15 8 8 5 10 15 19 16 13 12 15 17 19 21 18 20 17 18 22 19 18 18 19 22 24 26 26 25 24 20 22 23 22 23 24
21 24 24 20 16 19 20 20 21 16 16 6 13 21 22 17 15 17 17 19 20 23 23 21 19 20 23 21 20 22 23 24 26 26 26 25 25 27 26 25 25 25 26
18 16 18 19 16 14 16 20 15 16 26 26 23 29 26 25 19 15 18 19 20 22 25 26 26 27 28 27 28 27 23 26 28 28 28 27 29 30 29 27 27 27 29
20 16 14 16 14 14 14 19 23 24 23 27 32 37 37 29 24 20 20 20 20 21 25 28 30 29 31 30 28 28 27 27 29 30 30 30 30 31 31 29 28 28 28
18 19 17 16 18 17 18 21 25 25 30 34 34 40 41 35 29 24 19 20 21 23 28 30 30 32 32 33 31 29 30 28 25 26 30 32 31 31 32 32 31 30 30
20 18 20 20 20 21 23 23 26 31 32 27 27 34 36 35 31 29 23 22 26 29 30 32 32 32 34 35 33 32 29 30 28 28 30 30 31 32 35 36 35 35 33
22 21 21 22 24 23 26 27 25 26 28 30 31 29 26 26 25 22 24 27 29 32 34 35 36 35 36 36 36 34 32 33 33 32 34 33 32 33 35 36 37 37 35
22 22 20 20 20 21 23 28 26 22 24 28 32 29 21 19 18 28 25 24 29 35 37 39 41 38 37 39 38 34 32 33 35 36 36 36 36 36 37 37 38 40 40
22 23 23 24 21 20 21 23 26 26 25 25 23 20 21 27 29 26 24 27 24 25 32 37 38 37 40 41 37 37 30 29 32 35 36 40 40 39 40 41 40 40 41
22 23 23 26 28 26 23 22 22 24 24 25 24 20 17 19 20 20 20 23 26 26 16 17 25 26 25 32 38 39 35 34 33 33 35 36 39 41 43 43 42 42 43
23 24 23 24 23 26 27 23 21 20 21 23 23 22 21 21 20 19 19 20 22 23 23 26 28 27 25 25 24 33 38 39 39 37 37 38 38 40 42 42 42 44 44
23 24 23 23 24 23 22 25 24 23 22 21 20 20 21 20 20 18 19 17 15 15 18 22 25 27 24 21 21 24 29 33 36 38 36 38 42 43 43 44 44 42 41
25 24 24 25 25 25 25 26 28 27 25 23 21 19 17 16 14 11 9 12 13 14 11 11 15 20 23 26 30 33 32 29 31 34 35 36 36 38 42 42 42 43 43
20 23 19 18 22 25 26 25 26 27 26 26 25 25 22 18 15 16 16 14 12 10 6 5 7 13 19 23 24 25 30 31 26 20 27 27 27 32 35 38 39 39 39
Wind_Direction
238 239 238 246 242 240 242 242 243 244 245 247 247 242 241 239 234 233 234 237 241 243 249 245 241 241 233 235 238 235 236 226 241 215 196 193 187 168 171 157 130 111 89
247 248 244 248 250 242 244 244 244 247 246 248 248 248 244 240 231 231 237 242 245 248 252 249 238 243 234 236 235 240 231 230 231 237 212 206 196 182 184 185 180 147 128
252 251 252 251 254 250 255 258 251 248 247 247 246 245 247 245 234 233 236 241 240 249 252 248 237 242 239 234 230 227 233 236 234 241 246 224 211 203 200 198 204 210 209
266 261 259 257 256 259 261 261 258 258 244 241 249 251 246 249 243 237 236 237 238 245 248 253 230 240 238 230 230 236 240 239 233 235 240 243 228 219 212 212 213 215 213
272 271 272 264 261 261 262 264 261 257 244 239 272 260 248 243 241 239 236 233 235 238 245 246 232 236 235 223 234 241 235 236 232 236 240 242 235 223 226 217 211 211 213
278 279 280 276 267 265 264 260 260 260 258 259 257 258 237 243 244 244 240 234 236 238 240 242 237 236 235 236 242 242 230 231 230 232 237 246 248 242 233 223 215 210 212
291 291 292 287 284 280 274 269 264 264 269 300 264 266 263 263 257 253 252 241 238 239 238 240 234 236 234 235 250 242 228 225 229 240 245 254 253 244 238 224 219 217 214
347 325 318 311 303 299 293 284 275 270 270 262 255 256 258 255 281 259 250 247 246 244 239 240 233 230 230 230 246 244 232 230 229 228 231 242 254 241 231 227 227 222 218
358 337 327 316 305 305 306 308 298 287 288 349 285 266 263 264 273 254 244 246 250 245 238 235 231 231 229 227 240 246 236 237 233 229 226 219 219 218 214 211 216 215 219
354 344 336 331 325 317 318 313 305 290 283 4 280 280 282 274 262 246 236 239 246 240 233 231 230 233 233 237 239 243 239 241 236 225 219 217 214 212 211 216 218 222 227
330 312 310 307 314 316 318 318 316 304 278 291 295 283 289 285 273 261 247 236 228 224 227 231 229 232 240 226 244 241 242 241 234 222 219 217 221 220 222 222 222 228 235
340 318 301 299 303 305 312 300 298 297 293 306 303 298 299 286 269 258 247 244 228 222 222 224 221 232 233 234 239 242 241 234 228 220 216 215 218 222 226 229 232 233 235
338 338 330 300 291 289 289 279 266 230 200 209 289 282 291 283 261 246 244 237 237 228 231 219 222 223 231 231 240 239 236 231 226 222 222 221 223 225 230 231 231 234 235
336 335 333 332 314 300 298 292 282 231 202 242 268 274 272 268 264 256 235 235 234 230 230 228 227 222 221 230 232 235 237 233 229 231 231 232 229 230 233 234 235 235 238
321 328 329 330 334 318 303 299 288 248 252 275 272 249 249 263 257 253 252 235 236 235 231 232 231 231 222 224 231 233 237 236 233 231 231 231 230 231 231 232 233 235 239
300 305 306 306 310 309 292 272 269 261 263 270 293 263 267 283 263 243 237 237 231 227 227 231 236 241 235 230 233 237 240 240 240 238 236 235 233 230 231 229 234 237 241
281 284 285 290 291 288 290 289 285 273 272 273 272 263 270 273 271 258 248 239 236 231 232 234 238 240 234 234 235 237 240 241 244 247 243 240 238 237 231 231 236 239 240
269 266 272 277 282 279 280 286 294 289 284 270 271 277 268 258 261 259 247 253 240 230 228 235 237 239 239 240 242 242 239 243 241 242 243 243 239 237 237 234 236 240 242
274 271 268 274 274 279 276 280 286 295 283 278 292 297 281 250 248 252 254 251 257 251 248 244 244 244 246 247 247 246 247 246 247 245 244 243 240 238 239 241 242 244 246
288 272 272 278 280 277 280 279 281 290 298 285 288 285 266 255 269 284 273 261 251 256 261 262 258 256 257 255 252 250 247 250 249 245 245 245 244 243 242 240 241 243 243
303 292 274 278 280 285 292 290 288 289 291 297 303 294 281 272 284 281 267 255 257 268 276 267 268 267 258 259 257 253 251 250 254 252 248 246 245 246 246 245 243 245 247
300 302 289 281 278 281 290 302 299 297 295 292 295 301 298 289 281 283 263 255 262 269 271 274 280 274 270 257 257 260 260 258 253 251 253 255 252 249 249 248 247 246 247
306 300 299 286 290 281 276 287 302 304 304 301 299 300 298 297 296 297 294 282 270 264 266 269 265 270 275 270 260 254 253 255 258 254 256 260 261 259 255 253 252 250 249
323 309 297 293 290 291 289 282 291 294 299 303 305 301 305 298 298 296 296 293 288 282 274 265 262 268 278 276 273 269 264 261 261 259 260 268 270 264 261 258 255 255 256
326 319 307 293 291 292 294 293 292 292 291 291 294 302 310 303 295 296 317 318 303 296 289 286 275 269 268 268 274 277 274 276 267 261 262 265 265 266 263 259 260 260 258
327 335 313 302 299 296 295 294 295 295 289 284 286 289 294 300 300 294 302 305 304 301 295 297 314 301 284 274 272 273 267 264 263 265 265 256 263 263 260 259 258 259 260
Height
1530 1533 1536 1538 1540 1543 1545 1546 1547 1549 1550 1551 1553 1554 1555 1556 1558 1560 1561 1564 1565 1567 1569 1571 1573 1574 1576 1578 1580 1582 1584 1587 1589 1589 1592 1594 1596 1596 1598 1600 1601 1601 1601
1524 1528 1531 1533 1536 1538 1539 1541 1542 1543 1545 1546 1548 1550 1551 1551 1553 1554 1557 1559 1561 1563 1565 1567 1569 1571 1572 1574 1576 1578 1581 1584 1587 1588 1590 1591 1593 1595 1597 1599 1601 1602 1602
1521 1523 1527 1529 1530 1532 1534 1535 1536 1538 1540 1541 1543 1544 1546 1547 1547 1549 1551 1553 1555 1558 1560 1562 1565 1567 1569 1570 1573 1575 1578 1580 1583 1586 1588 1589 1591 1592 1594 1596 1598 1600 1602
1517 1519 1521 1521 1523 1526 1527 1529 1531 1531 1534 1535 1539 1541 1541 1543 1543 1543 1544 1547 1549 1552 1554 1556 1560 1562 1564 1566 1569 1572 1574 1576 1579 1582 1584 1586 1588 1590 1592 1593 1595 1597 1599
1514 1514 1515 1517 1518 1520 1521 1521 1522 1524 1527 1531 1533 1524 1536 1536 1536 1537 1538 1540 1543 1546 1548 1550 1554 1558 1560 1562 1566 1568 1569 1571 1574 1577 1580 1582 1584 1585 1585 1589 1592 1594 1596
1511 1512 1513 1513 1514 1514 1516 1516 1519 1521 1522 1520 1530 1529 1527 1528 1529 1532 1533 1535 1538 1540 1542 1545 1548 1553 1555 1557 1560 1563 1565 1567 1570 1572 1575 1577 1579 1581 1583 1586 1588 1590 1592
1507 1508 1509 1509 1509 1509 1510 1510 1513 1512 1515 1518 1521 1522 1523 1523 1523 1519 1530 1529 1531 1534 1537 1539 1542 1546 1550 1553 1556 1558 1560 1563 1566 1569 1571 1573 1574 1576 1579 1582 1584 1586 1589
1503 1505 1506 1506 1506 1505 1504 1504 1506 1505 1507 1509 1514 1515 1515 1516 1517 1516 1522 1525 1525 1528 1532 1534 1538 1541 1545 1548 1552 1554 1556 1558 1561 1563 1566 1569 1571 1573 1575 1578 1581 1584 1586
1503 1503 1502 1502 1501 1501 1500 1501 1500 1504 1505 1495 1510 1514 1508 1507 1508 1510 1514 1518 1519 1522 1527 1529 1533 1537 1540 1544 1547 1549 1551 1553 1555 1558 1561 1564 1567 1570 1572 1574 1576 1580 1581
1503 1502 1500 1500 1499 1498 1498 1497 1496 1500 1499 1493 1499 1507 1506 1504 1505 1505 1506 1510 1513 1517 1521 1524 1528 1533 1535 1538 1541 1544 1545 1548 1550 1552 1555 1559 1562 1564 1567 1570 1573 1575 1576
1503 1501 1500 1498 1496 1495 1494 1494 1493 1495 1498 1502 1502 1503 1500 1501 1502 1503 1502 1503 1505 1510 1514 1519 1523 1527 1531 1533 1536 1537 1540 1543 1544 1547 1550 1553 1557 1559 1562 1564 1567 1569 1571
1500 1498 1496 1494 1492 1490 1489 1489 1489 1488 1490 1494 1496 1498 1496 1494 1495 1497 1498 1500 1501 1504 1507 1513 1517 1522 1524 1529 1530 1531 1535 1536 1538 1541 1543 1546 1550 1554 1557 1559 1561 1563 1564
1499 1495 1492 1489 1487 1485 1485 1484 1483 1483 1483 1483 1491 1491 1491 1490 1487 1487 1492 1494 1498 1501 1504 1507 1511 1514 1518 1522 1524 1527 1529 1530 1531 1533 1536 1540 1544 1548 1550 1552 1554 1556 1557
1497 1493 1489 1486 1484 1482 1482 1480 1480 1479 1474 1471 1479 1480 1482 1481 1481 1484 1482 1486 1490 1495 1500 1503 1505 1507 1508 1512 1517 1520 1522 1524 1525 1527 1530 1535 1538 1540 1542 1545 1546 1549 1551
1495 1492 1488 1484 1482 1480 1478 1475 1474 1473 1471 1468 1464 1464 1466 1471 1472 1477 1479 1479 1482 1486 1492 1496 1498 1501 1501 1503 1508 1511 1513 1516 1517 1520 1523 1526 1529 1532 1534 1537 1539 1541 1541
1490 1489 1486 1482 1480 1478 1475 1473 1471 1469 1467 1465 1465 1464 1464 1467 1470 1469 1472 1475 1475 1478 1482 1485 1489 1492 1495 1495 1499 1502 1503 1507 1510 1513 1516 1519 1521 1523 1527 1530 1532 1533 1535
1484 1483 1481 1479 1477 1474 1471 1468 1465 1464 1462 1459 1459 1459 1459 1462 1466 1466 1468 1470 1471 1472 1473 1476 1480 1483 1486 1490 1491 1492 1495 1498 1501 1504 1508 1511 1514 1517 1519 1522 1524 1525 1527
1477 1476 1475 1473 1471 1469 1466 1463 1461 1457 1452 1451 1452 1450 1449 1452 1456 1459 1460 1463 1465 1464 1464 1468 1472 1476 1479 1480 1483 1484 1486 1488 1491 1495 1498 1502 1505 1508 1510 1511 1514 1515 1517
1470 1469 1468 1466 1464 1463 1460 1457 1455 1451 1448 1445 1444 1445 1443 1446 1449 1451 1453 1455 1459 1461 1461 1462 1465 1468 1471 1473 1474 1476 1477 1479 1483 1485 1488 1492 1494 1497 1498 1502 1505 1506 1509
1465 1463 1462 1460 1458 1456 1455 1452 1450 1448 1444 1442 1439 1440 1443 1444 1444 1448 1447 1448 1450 1453 1455 1456 1459 1460 1462 1463 1466 1467 1468 1469 1472 1476 1478 1481 1484 1486 1487 1489 1492 1494 1494
1460 1457 1456 1454 1453 1452 1450 1448 1445 1443 1441 1439 1437 1436 1437 1437 1440 1442 1440 1442 1444 1446 1446 1446 1449 1450 1451 1453 1454 1455 1457 1458 1461 1465 1468 1470 1473 1474 1476 1478 1480 1482 1484
1456 1452 1450 1448 1447 1446 1444 1443 1442 1439 1437 1436 1434 1434 1434 1433 1434 1433 1433 1436 1438 1440 1438 1438 1441 1442 1440 1441 1444 1446 1447 1449 1451 1454 1457 1460 1462 1464 1467 1468 1469 1471 1472
1452 1448 1445 1443 1441 1439 1438 1437 1436 1435 1433 1431 1429 1428 1427 1426 1426 1426 1427 1428 1428 1429 1429 1430 1431 1431 1430 1430 1430 1433 1436 1438 1440 1442 1446 1450 1452 1455 1457 1458 1460 1462 1462
1447 1443 1440 1437 1435 1434 1432 1430 1430 1429 1429 1427 1425 1424 1422 1421 1419 1418 1419 1419 1419 1419 1419 1419 1421 1421 1421 1420 1422 1424 1425 1427 1430 1432 1435 1438 1440 1443 1445 1447 1449 1451 1453
1443 1438 1435 1433 1430 1428 1426 1424 1422 1422 1422 1421 1420 1418 1417 1416 1415 1415 1413 1412 1411 1411 1409 1409 1411 1412 1412 1411 1412 1412 1414 1416 1417 1421 1423 1425 1426 1429 1432 1435 1438 1440 1442
1440 1436 1430 1428 1426 1423 1420 1418 1416 1415 1414 1413 1413 1412 1412 1410 1409 1409 1407 1407 1406 1405 1405 1405 1405 1404 1403 1402 1403 1405 1404 1406 1408 1410 1413 1414 1415 1417 1420 1423 1426 1428 1431